Regional Weather Roundup
Issued by NWS

Home | Current Version | Previous Version | Text Only | Print | Product List | Glossary On
Versions: 1 2 3 4 5 6 7 8 9 10 11 12 13 14 15 16 17 18 19 20 21 22 23 24 25 26 27 28 29 30 31 32 33 34 35 36 37 38 39 40 41 42 43 44 45 46 47 48 49 50
000
ASUS43 KFSD 230510
RWRSD

WEATHER ROUNDUP FOR SOUTH DAKOTA
NATIONAL WEATHER SERVICE SIOUX FALLS SD
1100 PM CST MON DEC 22 2014

NOTE: "FAIR" INDICATES FEW OR NO CLOUDS BELOW 12,000 FEET WITH NO
SIGNIFICANT WEATHER AND/OR OBSTRUCTIONS TO VISIBILITY.


SDZ001>005-009-010-012>017-230600-
NORTHWEST AND NORTH CENTRAL SOUTH DAKOTA

CITY           SKY/WX    TMP DP  RH WIND       PRES   REMARKS
BUFFALO          N/A     23  18  81 NW23G33   29.77R WCI   7
FAITH            N/A     24  20  84 NW25G36   29.73R WCI   8
MOBRIDGE       LGT SNOW  31  28  89 N22G30    29.64R FOG     WCI  18
$$

SDZ012>016-024>037-041>051-057-063-072>074-230600-
SOUTHWEST AND SOUTH CENTRAL SOUTH DAKOTA

CITY           SKY/WX    TMP DP  RH WIND       PRES   REMARKS
RAPID CTY ARPT LGT SNOW  26  23  88 N30G37    29.75R FOG     WCI  10
PIERRE         LGT SNOW  31  28  89 NW22G32   29.61R VSB 3/4 WCI  18
CUSTER         CLOUDY    24  15  68 N15G30    29.66R WCI  11
ELLSWORTH AFB  SNOW      26  24  92 N25G31    29.75  VSB 1/2 WCI  11
PHILIP         LGT SNOW  27  22  81 NW26G36   29.71R WCI  12
PINE RIDGE     LGT SNOW  28  24  85 N22G32    29.73R VSB 3/4 WCI  14
SPEARFISH      LGT SNOW  27  23  86 NW26G37   29.83R WCI  11
WINNER         LGT SNOW  30  27  88 NW24G35   29.59R FOG     WCI  16
$$

SDZ004>011-016>023-039-040-230600-
NORTHEAST SOUTH DAKOTA

CITY           SKY/WX    TMP DP  RH WIND       PRES   REMARKS
ABERDEEN       LGT SNOW  33  31  92 NE13      29.62R FOG     WCI  24
WATERTOWN      LGT SNOW  33  31  92 E12       29.55R FOG     WCI  24
SISSETON         N/A     32  32 100 E8        29.63R WCI  25
$$

SDZ017-020-022-023-036>040-048>070-230600-
SOUTHEAST SOUTH DAKOTA

CITY           SKY/WX    TMP DP  RH WIND       PRES   REMARKS
SIOUX FALLS    LGT RAIN  35  33  92 E10       29.50R WCI  27
HURON          FOG       32  32 100 N5        29.54R VSB 1   WCI  27
CHAMBERLAIN    MIX PCPN  32  31  97 NW16      29.55R WCI  21
MITCHELL       CLOUDY    33  33 100 N8        29.54R FOG     WCI  26
YANKTON        CLOUDY    34  30  86 NW12      29.51R WCI  25
$$

ABBREVIATIONS USED IN REMARKS
   TC - TEMPERATURE IN CELSIUS
  WCI - WIND CHILL INDEX
   HX - HEAT INDEX
  VSB - VISIBILITY




USA.gov is the U.S. government's official web portal to all federal, state and local government web resources and services.